Location: Newark
(51.2625°N, 13.3939°E)
Time: 15:31:30
(UTC+00:00)

Explorer 7 - All Passes

Search period start: 12 November 2019 00:00
Search period end: 22 November 2019 00:00
Orbit: 485 x 680 km, 50.3° (Epoch: 12 November)

Date Brightness Start Highest point End Pass type
(mag) Time Alt. Az. Time Alt. Az. Time Alt. Az.
12 Nov - 01:54:36 10° SSW 01:58:16 27° SSE 02:01:46 10° E visible
12 Nov - 03:34:14 10° WSW 03:38:25 65° SSE 03:42:22 10° E visible
12 Nov - 05:14:46 10° W 05:18:51 76° S 05:22:43 10° ESE visible
12 Nov - 06:55:27 10° W 06:59:05 36° SSW 07:02:35 10° SE daylight
13 Nov - 00:22:25 10° SSE 00:23:22 11° SE 00:24:17 10° ESE night (unlit)
13 Nov - 01:59:06 10° SW 02:03:05 36° SSE 02:06:53 10° E visible
13 Nov - 03:39:09 10° WSW 03:43:22 74° S 03:47:21 10° E visible
13 Nov - 05:19:45 10° W 05:23:49 67° SSW 05:27:39 10° ESE visible
13 Nov - 07:00:33 10° W 07:03:54 26° SSW 07:07:06 10° SSE daylight
14 Nov - 00:25:20 10° S 00:28:03 16° SE 00:30:40 10° ESE night (unlit)
14 Nov - 02:03:46 10° SW 02:07:57 47° SSE 02:11:55 10° E visible
14 Nov - 03:44:06 10° W 03:48:20 79° S 03:52:19 10° E visible
14 Nov - 05:24:44 10° W 05:28:44 56° SSW 05:32:31 10° ESE visible
14 Nov - 07:05:49 10° W 07:08:38 19° SW 07:11:22 10° S daylight
15 Nov - 00:29:17 10° SSW 00:32:47 22° SE 00:36:08 10° E night (unlit)
15 Nov - 02:08:33 10° WSW 02:12:51 59° SSE 02:16:54 10° E visible
15 Nov - 03:49:04 10° W 03:53:18 79° S 03:57:16 10° E visible
15 Nov - 05:29:43 10° W 05:33:37 44° SSW 05:37:18 10° SE visible
15 Nov - 07:11:28 10° WSW 07:13:19 13° SW 07:15:09 10° SSW daylight
16 Nov - 00:33:37 10° SSW 00:37:34 31° SSE 00:41:20 10° E night (unlit)
16 Nov - 02:13:26 10° WSW 02:17:47 69° SSE 02:21:52 10° E visible
16 Nov - 03:54:02 10° W 03:58:15 74° S 04:02:12 10° ESE visible
16 Nov - 05:34:46 10° W 05:38:27 33° SSW 05:41:57 10° SE visible
16 Nov - 23:00:33 10° SSE 23:02:35 13° SE 23:04:36 10° ESE night (unlit)
17 Nov - 00:38:10 10° SW 00:42:24 40° SSE 00:46:23 10° E night (unlit)
17 Nov - 02:18:22 10° W 02:22:44 77° S 02:26:50 10° E visible
17 Nov - 03:59:01 10° W 04:03:11 65° SSW 04:07:07 10° ESE visible
17 Nov - 05:39:54 10° W 05:43:14 25° SW 05:46:24 10° SSE visible
17 Nov - 23:04:06 10° S 23:07:17 19° SE 23:10:22 10° E night (unlit)
18 Nov - 00:42:53 10° SW 00:47:16 52° SSE 00:51:24 10° E night (unlit)
18 Nov - 02:23:19 10° W 02:27:41 80° S 02:31:47 10° E visible
18 Nov - 04:03:59 10° W 04:08:06 53° SSW 04:11:57 10° ESE visible
18 Nov - 05:45:14 10° W 05:47:57 17° SW 05:50:35 10° S visible
18 Nov - 23:08:13 10° SSW 23:12:02 26° SE 23:15:41 10° E night (unlit)
19 Nov - 00:47:42 10° WSW 00:52:10 63° SSE 00:56:22 10° E night (unlit)
19 Nov - 02:28:17 10° W 02:32:39 78° S 02:36:45 10° E visible
19 Nov - 04:08:59 10° W 04:12:58 41° SSW 04:16:42 10° SE visible
19 Nov - 05:51:05 10° WSW 05:52:36 12° SW 05:54:06 10° SSW visible
19 Nov - 21:36:58 10° SE 21:37:09 10° SE 21:37:19 10° SE night (unlit)
19 Nov - 23:12:38 10° SW 23:16:50 35° SSE 23:20:49 10° E night (unlit)
20 Nov - 00:52:36 10° WSW 00:57:07 73° S 01:01:20 10° E night (unlit)
20 Nov - 02:33:15 10° W 02:37:36 72° S 02:41:40 10° ESE visible
20 Nov - 04:14:03 10° W 04:17:46 31° SSW 04:21:18 10° SSE visible
20 Nov - 21:39:05 10° S 21:41:47 15° SE 21:44:26 10° ESE night (unlit)
20 Nov - 23:17:14 10° SW 23:21:40 45° SSE 23:25:51 10° E night (unlit)
21 Nov - 00:57:32 10° W 01:02:04 79° S 01:06:17 10° E night (unlit)
21 Nov - 02:38:13 10° W 02:42:32 62° SSW 02:46:34 10° ESE visible
21 Nov - 04:19:13 10° W 04:22:32 23° SW 04:25:41 10° SSE visible
21 Nov - 21:42:55 10° SSW 21:46:30 22° SE 21:49:57 10° E night (unlit)
21 Nov - 23:21:59 10° WSW 23:26:33 56° SSE 23:30:50 10° E night (unlit)
